Location: El Diablo
(32.4667°N, 116.4500°W)
Time: 01:52:18
(UTC+00:00)

Cosmos 2219 Rocket - Pass Details

Date: 10 September 2024
Orbit: 827 x 845 km, 71.0° (Epoch: 06 October)

Event Time Altitude Azimuth Distance (km) Brightness Sun altitude
Rises 12:16:30 0° 343° (NNW) 3,393 5.3 -15.4°
Reaches altitude 10° 12:18:59 10° 347° (NNW) 2,452 4.6 -14.9°
Maximum altitude 12:24:34 63° 68° (ENE) 926 2.7 -13.7°
Drops below altitude 10° 12:30:04 10° 149° (SSE) 2,428 4.8 -12.6°
Sets 12:32:31 0° 153° (SSE) 3,356 5.5 -12.1°
